Location: ?????????
(54.7630°N, 39.4991°E)
Time: 21:36:48
(UTC+00:00)

SKYMED 3 - Pass Details

Date: 14 April 2026
Orbit: 535 x 558 km, 97.8° (Epoch: 11 May)

Event Time Altitude Azimuth Distance (km) Brightness Sun altitude
Rises 17:46:49 0° 16° (NNE) 2,703 8.1 -11.5°
Reaches altitude 10° 17:48:58 10° 19° (NNE) 1,806 7.2 -11.7°
Maximum altitude 17:52:51 71° 104° (ESE) 574 4.2 -12.2°
Drops below altitude 10° 17:56:42 10° 188° (S) 1,790 6.6 -12.6°
Sets 17:58:49 0° 191° (S) 2,678 7.6 -12.9°
